VR2HK-13 Weather Reports


time (UTC)temp
C
wind
direction
speed
KPH
gust
KPH
rain 1hr
cm
rain 24hr
cm
rain mn
cm
humidity
%
barometer
mb
20260505000823 19 230 4.8 25.7 0.00 1.30 0.00 87 1015.4
20260505000452 19 54 14.5 25.7 0.00 1.30 0.00 87 1015.4
20260505000314 19 236 6.4 14.5 0.00 1.30 0.00 87 1015.3
20260504235952 19 26 1.6 14.5 0.00 1.30 0.00 87 1015.4
20260504235803 19 262 3.2 14.5 0.00 1.30 0.00 88 1015.3
20260504235452 19 226 4.8 8.0 0.00 1.30 0.00 88 1015.3
20260504235253 19 266 1.6 19.3 0.00 1.30 0.00 88 1015.2
20260504234952 19 275 4.8 30.6 0.00 1.30 0.00 88 1015.2
20260504234743 19 51 6.4 30.6 0.00 1.30 0.00 87 1015.3
20260504234452 19 10 9.7 22.5 0.00 1.30 0.00 88 1015.2
20260504234233 19 293 6.4 17.7 0.00 1.30 0.00 88 1015.1
20260504233951 19 236 6.4 19.3 0.00 1.30 0.00 88 1015.0
20260504233723 19 85 6.4 19.3 0.00 1.30 0.00 88 1015.0
20260504233452 20 75 8.0 14.5 0.00 1.30 0.00 88 1015.0
20260504233213 19 262 3.2 20.9 0.00 1.30 0.00 88 1015.0
20260504232952 19 285 9.7 41.8 0.00 1.30 0.00 88 1015.0
20260504232703 19 144 17.7 41.8 0.00 1.30 0.00 88 1015.0
20260504232451 20 313 6.4 20.9 0.00 1.30 0.00 88 1014.9
20260504232153 20 320 9.7 35.4 0.00 1.30 0.00 88 1014.9
20260504231951 20 237 14.5 35.4 0.00 1.30 0.00 88 1014.9
20260504231452 20 264 12.9 20.9 0.00 1.30 0.00 88 1015.0
20260504231132 20 294 1.6 16.1 0.00 1.30 0.00 88 1015.0
20260504230951 20 343 9.7 16.1 0.00 1.30 0.00 88 1015.1
20260504230623 20 190 3.2 11.3 0.00 1.30 0.00 88 1015.0
20260504230451 20 30 3.2 11.3 0.00 1.30 0.00 88 1015.0
20260504230113 20 29 0.0 19.3 0.00 1.30 0.00 88 1015.0
20260504225952 20 257 8.0 19.3 0.00 1.30 0.00 88 1014.9
20260504225603 20 295 6.4 12.9 0.00 1.30 0.00 88 1015.0
20260504225451 20 244 3.2 12.9 0.00 1.30 0.00 88 1015.0
20260504225053 20 313 1.6 9.7 0.00 1.30 0.00 88 1015.0
20260504224952 20 238 6.4 9.7 0.00 1.30 0.00 88 1015.0
20260504224543 20 335 3.2 14.5 0.00 1.30 0.00 87 1015.0
20260504224452 20 256 4.8 14.5 0.00 1.30 0.00 87 1014.9
20260504224032 20 356 6.4 14.5 0.00 1.30 0.00 87 1014.9
20260504223951 20 310 8.0 14.5 0.00 1.30 0.00 87 1014.9
20260504223522 20 13 4.8 14.5 0.00 1.30 0.00 87 1014.8
20260504223451 20 9 0.0 8.0 0.00 1.30 0.00 87 1014.9
20260504223013 20 246 8.0 27.4 0.00 1.30 0.00 87 1014.8
20260504222951 20 275 14.5 27.4 0.00 1.30 0.00 87 1014.8
20260504222502 20 2 4.8 11.3 0.00 1.30 0.00 87 1014.7
20260504222451 20 263 3.2 12.9 0.00 1.30 0.00 87 1014.7
20260504221953 20 271 4.8 12.9 0.00 1.30 0.00 86 1014.7
20260504221951 20 258 4.8 12.9 0.00 1.30 0.00 86 1014.7
20260504221451 20 278 6.4 12.9 0.00 1.30 0.00 86 1014.7
20260504221443 20 266 6.4 12.9 0.00 1.30 0.00 86 1014.8
20260504220951 20 292 1.6 11.3 0.00 1.30 0.00 86 1014.8
20260504220932 20 324 3.2 14.5 0.00 1.30 0.00 86 1014.8
20260504220451 20 232 9.7 24.1 0.00 1.30 0.00 85 1014.8
20260504220422 20 224 4.8 24.1 0.00 1.30 0.00 85 1014.7
20260504215951 20 359 3.2 20.9 0.00 1.30 0.00 84 1014.7
20260504215913 20 53 3.2 20.9 0.00 1.30 0.00 84 1014.8
20260504215451 20 275 3.2 11.3 0.00 1.30 0.00 84 1014.7
20260504215402 20 262 3.2 11.3 0.00 1.30 0.00 84 1014.8
20260504214951 20 255 3.2 12.9 0.00 1.30 0.00 84 1014.8
20260504214852 20 257 4.8 12.9 0.00 1.30 0.00 84 1014.8
20260504214451 20 33 4.8 17.7 0.00 1.30 0.00 84 1014.5
20260504214342 20 238 3.2 17.7 0.00 1.30 0.00 84 1014.6
20260504213951 20 325 4.8 29.0 0.00 1.30 0.00 84 1014.4
20260504213832 20 214 9.7 29.0 0.00 1.30 0.00 84 1014.4
20260504213451 20 294 9.7 27.4 0.00 1.30 0.00 84 1014.3
20260504213323 20 249 12.9 27.4 0.00 1.30 0.00 84 1014.2
20260504212950 20 360 1.6 8.0 0.00 1.30 0.00 84 1014.2
20260504212812 20 343 6.4 16.1 0.00 1.30 0.00 84 1014.2
20260504212451 20 352 4.8 16.1 0.00 1.30 0.00 83 1014.2
20260504212304 20 243 4.8 11.3 0.00 1.30 0.00 83 1014.2
20260504211950 20 291 4.8 14.5 0.00 1.30 0.00 83 1014.3
20260504211752 21 296 3.2 20.9 0.00 1.30 0.00 83 1014.3
20260504211451 21 301 4.8 20.9 0.00 1.30 0.00 83 1014.3
20260504211242 21 240 6.4 16.1 0.00 1.30 0.00 83 1014.4
20260504210950 21 236 8.0 14.5 0.00 1.30 0.00 83 1014.3
20260504210732 21 203 6.4 22.5 0.00 1.30 0.00 83 1014.3
20260504210450 21 352 3.2 24.1 0.00 1.30 0.00 83 1014.2
20260504210222 21 270 8.0 16.1 0.00 1.30 0.00 83 1014.2
20260504205951 21 263 6.4 14.5 0.00 1.30 0.00 83 1014.2
20260504205710 21 294 3.2 14.5 0.00 1.30 0.00 83 1014.3
20260504205450 21 256 4.8 14.5 0.00 1.30 0.00 83 1014.3
20260504205202 21 298 4.8 16.1 0.00 1.30 0.00 83 1014.4
20260504204951 21 272 9.7 16.1 0.00 1.30 0.00 83 1014.4
20260504204652 21 267 0.0 16.1 0.00 1.30 0.00 83 1014.4
20260504204449 21 336 6.4 16.1 0.00 1.30 0.00 83 1014.4
20260504204142 21 74 3.2 14.5 0.00 1.30 0.00 82 1014.3
20260504203950 21 232 1.6 25.7 0.00 1.30 0.00 83 1014.3
20260504203632 21 298 6.4 25.7 0.00 1.30 0.00 83 1014.2
20260504203451 21 232 14.5 24.1 0.00 1.30 0.00 83 1014.2
20260504203121 21 26 6.4 20.9 0.00 1.30 0.00 83 1014.2
20260504202950 21 296 3.2 20.9 0.00 1.30 0.00 83 1014.1
20260504202612 21 30 4.8 12.9 0.00 1.30 0.00 83 1014.1
20260504202451 21 234 3.2 16.1 0.00 1.30 0.00 83 1014.2
20260504202101 21 250 8.0 29.0 0.00 1.30 0.00 83 1014.2
20260504201950 21 10 8.0 29.0 0.00 1.30 0.00 83 1014.1
20260504201552 21 340 6.4 19.3 0.00 1.30 0.00 83 1014.2
20260504201450 21 214 9.7 19.3 0.00 1.30 0.00 83 1014.1
20260504201041 21 171 3.2 19.3 0.00 1.30 0.00 83 1014.2
20260504200950 21 271 6.4 19.3 0.00 1.30 0.00 83 1014.2
20260504200531 21 299 4.8 16.1 0.00 1.30 0.00 83 1014.1
20260504200450 21 267 8.0 16.1 0.00 1.30 0.00 83 1014.2
20260504200022 21 355 3.2 8.0 0.00 1.30 0.00 83 1014.1
20260504195950 21 279 1.6 6.4 0.00 1.30 0.00 83 1014.1
20260504195512 21 152 3.2 25.7 0.00 1.30 0.00 83 1014.2
20260504195450 21 317 6.4 25.7 0.00 1.30 0.00 83 1014.2
20260504195001 21 331 3.2 9.7 0.00 1.30 0.00 84 1014.2
20260504194950 21 360 1.6 9.7 0.00 1.30 0.00 84 1014.2
20260504194452 21 63 1.6 19.3 0.00 1.30 0.00 83 1014.1
20260504194449 21 109 1.6 19.3 0.00 1.30 0.00 83 1014.2
20260504193950 21 335 12.9 33.8 0.00 1.30 0.00 84 1014.0
20260504193941 21 18 16.1 33.8 0.00 1.30 0.00 84 1014.0
20260504193450 21 269 11.3 22.5 0.00 1.30 0.00 84 1014.0
20260504193431 21 272 16.1 22.5 0.00 1.30 0.00 84 1014.0
20260504192921 21 232 6.4 16.1 0.00 1.30 0.00 84 1014.0
20260504192450 21 283 9.7 16.1 0.00 1.30 0.00 84 1014.0
20260504192411 21 277 6.4 16.1 0.00 1.30 0.00 84 1013.9
20260504191950 21 294 8.0 20.9 0.00 1.30 0.00 84 1014.0
20260504191901 21 254 8.0 25.7 0.00 1.30 0.00 84 1014.0
20260504191449 21 226 9.7 25.7 0.00 1.30 0.00 84 1014.0
20260504191351 21 255 6.4 16.1 0.00 1.30 0.00 84 1014.0
20260504190950 21 24 0.0 14.5 0.00 1.30 0.00 84 1014.1
20260504190841 21 53 0.0 14.5 0.00 1.30 0.00 84 1014.1
20260504190450 21 20 1.6 16.1 0.00 1.30 0.00 85 1014.2
20260504190331 21 37 6.4 25.7 0.00 1.30 0.00 85 1014.1
20260504185949 21 25 6.4 25.7 0.00 1.30 0.00 85 1014.2
20260504185820 21 67 1.6 12.9 0.00 1.30 0.00 85 1014.2
20260504185449 21 334 4.8 12.9 0.00 1.30 0.00 85 1014.2
20260504185311 21 336 1.6 11.3 0.00 1.30 0.00 85 1014.2
20260504184950 21 34 4.8 11.3 0.00 1.30 0.00 85 1014.2
20260504184800 21 47 3.2 9.7 0.00 1.30 0.00 85 1014.3
20260504184449 21 205 3.2 11.3 0.00 1.30 0.00 85 1014.4
20260504184251 21 313 3.2 11.3 0.00 1.30 0.00 84 1014.4
20260504183949 21 245 1.6 12.9 0.00 1.30 0.00 84 1014.4
20260504183741 21 359 0.0 12.9 0.00 1.30 0.00 84 1014.3
20260504183449 21 351 4.8 9.7 0.00 1.30 0.00 84 1014.3
20260504183230 21 110 4.8 12.9 0.00 1.30 0.00 84 1014.4
20260504182949 21 330 6.4 12.9 0.00 1.30 0.00 84 1014.4
20260504182721 21 273 3.2 6.4 0.00 1.30 0.00 84 1014.3
20260504182450 21 62 0.0 19.3 0.00 1.30 0.00 84 1014.4
20260504182210 21 347 9.7 19.3 0.00 1.30 0.00 83 1014.5
20260504181949 21 46 3.2 11.3 0.00 1.30 0.00 83 1014.7
20260504181700 21 360 1.6 19.3 0.00 1.30 0.00 83 1014.9
20260504181449 21 27 4.8 22.5 0.00 1.30 0.00 83 1014.8
20260504181151 21 21 6.4 22.5 0.00 1.30 0.00 83 1014.9
20260504180949 21 25 1.6 14.5 0.00 1.30 0.00 83 1014.9
20260504180641 21 359 4.8 20.9 0.00 1.30 0.00 83 1015.0
20260504180449 21 201 12.9 20.9 0.00 1.30 0.00 83 1015.0
20260504180130 21 138 1.6 9.7 0.00 1.30 0.00 83 1014.9
20260504175949 21 343 3.2 9.7 0.00 1.30 0.00 83 1015.0
20260504175621 21 181 4.8 9.7 0.00 1.30 0.00 83 1015.1
20260504175449 21 273 3.2 8.0 0.00 1.30 0.00 83 1015.1
20260504175110 21 308 1.6 19.3 0.00 1.30 0.00 83 1015.1
20260504174949 21 268 1.6 22.5 0.00 1.30 0.00 83 1015.2
20260504174600 21 270 6.4 22.5 0.00 1.30 0.00 83 1015.2
20260504174449 21 225 4.8 20.9 0.00 1.30 0.00 83 1015.1
20260504174051 22 27 3.2 16.1 0.00 1.30 0.00 84 1015.1
20260504173949 21 243 0.0 16.1 0.00 1.30 0.00 83 1015.2
20260504173540 21 330 8.0 19.3 0.00 1.30 0.00 83 1015.1
20260504173449 21 10 4.8 19.3 0.00 1.30 0.00 84 1015.1
20260504173030 22 345 3.2 12.9 0.00 1.30 0.00 83 1015.2
20260504172949 22 356 3.2 12.9 0.00 1.30 0.00 83 1015.2
20260504172520 22 343 1.6 9.7 0.00 1.30 0.00 83 1015.3
20260504172448 22 13 0.0 9.7 0.00 1.30 0.00 83 1015.3
20260504172010 22 95 6.4 11.3 0.00 1.30 0.00 83 1015.3
20260504171949 22 30 6.4 11.3 0.00 1.30 0.00 83 1015.3
20260504171500 22 48 3.2 22.5 0.00 1.30 0.00 83 1015.3
20260504171448 22 37 4.8 22.5 0.00 1.30 0.00 83 1015.3
20260504170951 22 34 6.4 22.5 0.00 1.30 0.00 82 1015.4
20260504170949 22 360 6.4 22.5 0.00 1.30 0.00 82 1015.4
20260504170448 22 260 3.2 11.3 0.00 1.30 0.00 82 1015.4
20260504170439 22 312 1.6 11.3 0.00 1.30 0.00 82 1015.4
20260504160240 22 313 4.8 12.9 0.00 1.30 0.00 84 1015.7
20260504151059 21 217 4.8 27.4 0.00 1.30 0.00 85 1016.4
20260504150947 21 360 4.8 27.4 0.00 1.30 0.00 85 1016.4
20260504150549 21 252 14.5 20.9 0.00 1.30 0.00 85 1016.3
20260504150448 21 225 1.6 14.5 0.00 1.30 0.00 85 1016.4
20260504140948 22 351 1.6 29.0 0.00 1.30 0.00 86 1016.1
20260504140858 21 274 16.1 29.0 0.00 1.30 0.00 86 1016.1
20260504140447 22 337 6.4 20.9 0.00 1.30 0.00 86 1016.1
20260504140348 22 2 11.3 27.4 0.00 1.30 0.00 86 1016.1
20260504130658 22 231 6.4 19.3 0.00 1.30 0.00 85 1015.7
20260504130447 22 263 6.4 19.3 0.00 1.30 0.00 85 1015.7
20260504130148 22 252 3.2 19.3 0.00 1.30 0.00 85 1015.6
20260504110445 22 339 8.0 16.1 0.00 1.30 0.00 85 1015.0
20260504110257 22 119 3.2 17.7 0.00 1.30 0.00 85 1015.1
20260504100607 22 219 1.6 20.9 0.00 1.30 0.00 85 1014.5
20260504100446 22 317 1.6 20.9 0.00 1.30 0.00 85 1014.4
20260504081944 25 56 9.7 24.1 0.25 1.22 0.00 75 1014.6
20260504081736 25 50 0.0 24.1 0.28 1.22 0.00 75 1014.6
20260504081445 25 113 3.2 14.5 0.30 1.24 0.00 74 1014.5
20260504081226 25 57 3.2 16.1 0.36 1.24 0.00 74 1014.6
20260504080944 25 69 8.0 16.1 0.36 1.24 0.00 74 1014.7
20260504080716 25 81 1.6 14.5 0.28 1.19 0.00 74 1014.8
20260504080444 25 360 1.6 14.5 0.28 1.17 0.00 74 1014.8
20260504080206 25 46 4.8 12.9 0.25 1.12 0.00 74 1014.9
20260504050625 27 27 17.7 30.6 0.10 2.59 0.00 62 1015.9
20260504050442 27 41 12.9 24.1 0.10 2.67 0.00 62 1015.9
20260504045943 27 339 12.9 22.5 0.05 2.77 0.00 63 1015.9
20260504045605 27 360 4.8 29.0 0.05 2.92 0.00 64 1015.8
20260504045443 27 55 12.9 29.0 0.05 3.00 0.00 64 1015.9
20260504045054 27 14 1.6 20.9 0.05 3.07 0.00 64 1016.0
20260504044943 27 31 8.0 20.9 0.05 3.10 0.00 65 1016.0
20260504044544 27 51 4.8 30.6 0.05 3.23 0.00 65 1016.0
20260504044443 26 33 8.0 30.6 0.05 3.23 0.00 65 1016.0
20260504044034 26 38 8.0 35.4 0.05 3.48 0.00 66 1016.0
20260504043942 26 356 3.2 35.4 0.05 3.48 0.00 66 1016.0
20260504043524 27 204 8.0 19.3 0.03 3.68 0.00 65 1015.9
20260504043443 27 127 11.3 19.3 0.03 3.68 0.00 65 1015.9
20260504043015 27 266 4.8 11.3 0.03 3.91 0.00 66 1015.8
20260504042943 27 246 4.8 11.3 0.03 3.91 0.00 66 1015.8
20260504042505 27 56 3.2 12.9 0.05 4.11 0.00 65 1015.8
20260504042442 27 43 3.2 12.9 0.05 4.27 0.00 65 1015.8
20260504041954 27 265 9.7 14.5 0.05 4.39 0.00 66 1016.0
20260504041943 27 253 8.0 14.5 0.05 4.45 0.00 66 1015.9
20260504041445 26 314 8.0 16.1 0.05 4.67 0.00 66 1015.9
20260504041442 26 265 8.0 16.1 0.05 4.67 0.00 66 1015.9
20260504040943 26 44 3.2 16.1 0.05 4.98 0.00 67 1016.1
20260504040934 26 23 3.2 16.1 0.05 4.98 0.00 67 1016.2
20260504040443 26 25 4.8 12.9 0.03 5.11 0.00 68 1016.2
20260504040423 26 63 1.6 12.9 0.03 5.11 0.00 68 1016.2
20260504035942 26 5 9.7 16.1 0.03 5.31 0.00 67 1016.2
20260504035443 26 33 4.8 9.7 0.05 5.66 0.00 68 1016.2
20260504035404 26 35 4.8 9.7 0.05 5.66 0.00 68 1016.2
20260504034942 26 79 4.8 12.9 0.05 6.02 0.00 67 1016.3
20260504034853 26 68 8.0 12.9 0.05 6.02 0.00 67 1016.3
20260504034442 26 301 1.6 4.8 0.05 6.32 0.00 67 1016.3
20260504034344 26 110 1.6 4.8 0.05 6.32 0.00 68 1016.3
20260504033943 26 110 1.6 9.7 0.05 6.38 0.00 68 1016.2
20260504033834 26 300 6.4 9.7 0.05 6.43 0.00 67 1016.2
20260504033442 26 205 6.4 9.7 0.05 6.55 0.00 67 1016.3
20260504033323 26 176 1.6 6.4 0.05 6.55 0.00 68 1016.3
20260504032942 26 36 3.2 12.9 0.05 6.71 0.00 68 1016.3
20260504032814 26 31 1.6 12.9 0.05 6.71 0.00 68 1016.2
20260504032443 26 29 3.2 14.5 0.03 6.96 0.00 67 1016.2
20260504032304 26 27 9.7 14.5 0.05 7.01 0.00 67 1016.2
20260504031942 26 303 1.6 17.7 0.05 7.21 0.00 68 1016.2
20260504031753 26 349 4.8 19.3 0.05 7.24 0.00 68 1016.2
20260504031442 26 27 11.3 19.3 0.05 7.54 0.00 67 1016.2
20260504031244 26 117 8.0 16.1 0.05 7.72 0.00 68 1016.4
20260504030942 26 10 8.0 16.1 0.05 7.85 0.00 67 1016.6
20260504030733 26 124 4.8 14.5 0.05 7.92 0.00 67 1016.5
20260504030442 26 36 3.2 9.7 0.05 8.13 0.00 67 1016.5
20260504030224 26 54 0.0 11.3 0.05 8.20 0.00 68 1016.6
20260504025942 26 49 3.2 16.1 0.05 8.36 0.00 67 1016.6
20260504025713 26 50 3.2 16.1 0.03 8.46 0.00 66 1016.6
20260504025442 26 54 4.8 14.5 0.03 8.56 0.00 66 1016.5
20260504025204 27 285 8.0 14.5 0.03 8.74 0.00 66 1016.5
20260504024942 27 294 4.8 14.5 0.03 8.97 0.00 66 1016.5
20260504024653 27 351 6.4 16.1 0.03 9.04 0.00 66 1016.5
20260504024442 26 108 4.8 16.1 0.03 9.14 0.00 65 1016.5
20260504024144 27 257 4.8 25.7 0.03 9.37 0.00 67 1016.4
20260504023942 26 46 4.8 25.7 0.03 9.47 0.00 66 1016.4
20260504023633 26 286 4.8 12.9 0.03 9.65 0.00 66 1016.4
20260504023442 26 126 3.2 20.9 0.03 9.73 0.00 67 1016.4
20260504023123 26 83 9.7 20.9 0.03 9.96 0.00 67 1016.4
20260504022942 26 19 12.9 19.3 0.03 10.06 0.00 67 1016.5
20260504022613 26 230 4.8 11.3 0.03 10.31 0.00 67 1016.4
20260504022441 26 352 3.2 11.3 0.03 10.46 0.00 68 1016.5
20260504022103 25 5 4.8 19.3 0.00 10.69 0.00 68 1016.4
20260504021942 25 23 11.3 19.3 0.00 10.77 0.00 68 1016.4
20260504021552 25 85 8.0 22.5 0.00 10.95 0.00 68 1016.3
20260504021441 25 354 8.0 27.4 0.00 11.10 0.00 68 1016.3
20260504021043 25 76 14.5 27.4 0.00 11.23 0.00 67 1016.4
20260504020942 25 30 6.4 19.3 0.00 11.35 0.00 68 1016.4
20260504020533 25 3 9.7 19.3 0.00 11.48 0.00 68 1016.5
20260504020442 25 218 12.9 19.3 0.00 11.51 0.00 68 1016.4
20260504020023 25 345 1.6 19.3 0.00 11.73 0.00 69 1016.4
20260504015941 25 360 4.8 19.3 0.00 11.73 0.00 69 1016.4
20260504015513 25 254 4.8 17.7 0.00 12.01 0.00 68 1016.4
20260504015442 25 237 8.0 17.7 0.00 12.06 0.00 68 1016.3
20260504015003 25 286 3.2 8.0 0.00 12.19 0.00 70 1016.4
20260504014941 25 246 3.2 8.0 0.00 12.27 0.00 70 1016.3
20260504014453 24 56 1.6 19.3 0.00 12.37 0.00 69 1016.5
20260504014443 24 297 1.6 19.3 0.00 12.37 0.00 68 1016.5
20260504013943 25 76 9.7 14.5 0.00 12.67 0.00 68 1016.5
20260504013941 25 67 9.7 14.5 0.00 12.67 0.00 68 1016.5
20260504013441 25 24 9.7 16.1 0.00 12.95 0.00 68 1016.5
20260504013433 25 26 9.7 16.1 0.00 12.95 0.00 68 1016.5
20260504012942 25 244 0.0 9.7 0.00 13.21 0.00 68 1016.2
20260504012923 25 53 1.6 9.7 0.00 13.21 0.00 68 1016.2
20260504012441 25 265 3.2 19.3 0.00 13.54 0.00 67 1016.0
20260504012412 25 319 4.8 19.3 0.00 13.54 0.00 67 1016.0
20260504011941 25 151 8.0 14.5 0.00 13.77 0.00 67 1016.1
20260504011903 25 111 9.7 14.5 0.00 13.77 0.00 67 1016.1
20260504011441 25 221 6.4 22.5 0.00 13.92 0.00 66 1016.0
20260504010941 25 50 6.4 12.9 0.00 14.15 0.00 67 1015.9
20260504010843 25 19 6.4 12.9 0.00 14.17 0.00 66 1015.8
20260504010441 25 183 3.2 29.0 0.00 14.33 0.00 67 1015.7
20260504010332 24 31 4.8 29.0 0.00 14.35 0.00 66 1015.7
20260504005941 25 48 8.0 17.7 0.00 14.58 0.00 66 1015.7
20260504005822 25 89 8.0 17.7 0.00 14.63 0.00 66 1015.7
20260504005442 25 61 6.4 16.1 0.00 14.86 0.00 67 1015.7
20260504005313 25 236 4.8 12.9 0.00 15.01 0.00 67 1015.7
20260504004941 25 254 3.2 11.3 0.00 15.32 0.00 69 1015.7
20260504004802 24 29 8.0 11.3 0.00 15.44 0.00 69 1015.7
20260504004441 24 46 0.0 4.8 0.00 15.75 0.00 69 1015.6
20260504004253 24 351 1.6 6.4 0.00 15.82 0.00 70 1015.7
20260504003941 23 252 1.6 6.4 0.00 15.93 0.00 71 1015.7
20260504003742 23 177 0.0 3.2 0.00 16.00 0.00 71 1015.8
20260504003441 23 89 0.0 4.8 0.00 16.33 0.00 71 1015.8
20260504003233 23 24 0.0 4.8 0.00 16.51 0.00 70 1015.8
20260504002940 23 322 0.0 3.2 0.00 16.66 0.00 70 1015.8
20260504002722 23 214 1.6 8.0 0.00 16.69 0.00 71 1015.8
20260504002441 23 334 3.2 8.0 0.00 16.92 0.00 71 1015.8
20260504002212 23 31 1.6 12.9 0.00 17.02 0.00 71 1015.7
20260504001941 23 25 1.6 16.1 0.00 17.17 0.00 72 1015.6
20260504001702 23 56 9.7 16.1 0.00 17.40 0.00 72 1015.6
20260504001440 23 27 3.2 11.3 0.00 17.63 0.00 73 1015.6
20260504001152 23 293 4.8 8.0 0.00 17.96 0.00 74 1015.6
20260504000941 23 292 4.8 6.4 0.00 18.14 0.00 73 1015.6